owner,sensor,date,latitude,longitude,vertical_datum,mass_concentration_of_oxygen_in_sea_water,qcFlag 
DISL,ioos:station:DISL:BSCA:1,2018-04-01T08:00:00Z,30.3288,-87.8293,2.061,5.41,1111122 
DISL,ioos:station:DISL:BSCA:1,2018-04-01T09:00:00Z,30.3288,-87.8293,2.056,4.33,1111122 
DISL,ioos:station:DISL:BSCA:1,2018-04-01T10:00:00Z,30.3288,-87.8293,2.078,4.54,1111122 
DISL,ioos:station:DISL:BSCA:1,2018-04-01T11:00:00Z,30.3288,-87.8293,2.063,6.39,1111122 
DISL,ioos:station:DISL:BSCA:1,2018-04-01T12:00:00Z,30.3288,-87.8293,2.014,3.01,1111122 
DISL,ioos:station:DISL:BSCA:1,2018-04-01T13:00:00Z,30.3288,-87.8293,2.028,3.13,1111122 
DISL,ioos:station:DISL:BSCA:1,2018-04-01T13:30:00Z,30.3288,-87.8293,2.036,1.34,1111122 
DISL,ioos:station:DISL:BSCA:1,2018-04-02T19:30:00Z,30.3288,-87.8293,2.171,6.08,1111122 
DISL,ioos:station:DISL:BSCA:1,2018-04-03T10:30:00Z,30.3288,-87.8293,2.093,7.64,1111122 
DISL,ioos:station:DISL:BSCA:1,2018-04-04T18:00:00Z,30.3288,-87.8293,2.023,7.12,1111122 
DISL,ioos:station:DISL:BSCA:1,2018-04-04T18:30:00Z,30.3288,-87.8293,2.003,6.54,1111122 
DISL,ioos:station:DISL:BSCA:1,2018-04-04T20:00:00Z,30.3288,-87.8293,1.984,7.32,1111122 
DISL,ioos:station:DISL:BSCA:1,2018-04-04T20:30:00Z,30.3288,-87.8293,1.983,7.75,1111122 
DISL,ioos:station:DISL:BSCA:1,2018-04-04T21:30:00Z,30.3288,-87.8293,1.979,8.15,1111122 
DISL,ioos:station:DISL:BSCA:1,2018-04-04T22:30:00Z,30.3288,-87.8293,1.989,8.48,1111122 
DISL,ioos:station:DISL:BSCA:1,2018-04-04T23:30:00Z,30.3288,-87.8293,1.933,8.44,1111122 
DISL,ioos:station:DISL:BSCA:1,2018-04-05T00:30:00Z,30.3288,-87.8293,1.871,7.84,1111122 
DISL,ioos:station:DISL:BSCA:1,2018-04-05T01:30:00Z,30.3288,-87.8293,1.835,6.91,1111122 
DISL,ioos:station:DISL:BSCA:1,2018-04-05T02:30:00Z,30.3288,-87.8293,1.791,6.77,1111122 
DISL,ioos:station:DISL:BSCA:1,2018-04-05T03:30:00Z,30.3288,-87.8293,1.717,7.17,1111122 
DISL,ioos:station:DISL:BSCA:1,2018-04-05T04:30:00Z,30.3288,-87.8293,1.685,4.76,1111122 
DISL,ioos:station:DISL:BSCA:1,2018-04-05T05:30:00Z,30.3288,-87.8293,1.681,4.31,1111122 
DISL,ioos:station:DISL:BSCA:1,2018-04-05T06:30:00Z,30.3288,-87.8293,1.662,5.75,1111122 
DISL,ioos:station:DISL:BSCA:1,2018-04-05T07:30:00Z,30.3288,-87.8293,1.664,6.07,1111122 
DISL,ioos:station:DISL:BSCA:1,2018-04-05T08:30:00Z,30.3288,-87.8293,1.667,6.12,1111122 
DISL,ioos:station:DISL:BSCA:1,2018-04-05T09:30:00Z,30.3288,-87.8293,1.645,6.37,1111122 
DISL,ioos:station:DISL:BSCA:1,2018-04-05T10:30:00Z,30.3288,-87.8293,1.641,5.46,1111122 
DISL,ioos:station:DISL:BSCA:1,2018-04-05T11:30:00Z,30.3288,-87.8293,1.699,4.3,1111122 
DISL,ioos:station:DISL:BSCA:1,2018-04-05T12:30:00Z,30.3288,-87.8293,1.765,2.89,1111122 
DISL,ioos:station:DISL:BSCA:1,2018-04-05T13:30:00Z,30.3288,-87.8293,1.817,4.36,1111122 
DISL,ioos:station:DISL:BSCA:1,2018-04-05T14:00:00Z,30.3288,-87.8293,1.836,4.84,1111122 
DISL,ioos:station:DISL:BSCA:1,2018-04-06T08:30:00Z,30.3288,-87.8293,1.697,2.46,1111122 
DISL,ioos:station:DISL:BSCA:1,2018-04-06T09:30:00Z,30.3288,-87.8293,1.726,2.59,1111122 
DISL,ioos:station:DISL:BSCA:1,2018-04-06T10:30:00Z,30.3288,-87.8293,1.781,4.32,1111122 
DISL,ioos:station:DISL:BSCA:1,2018-04-06T11:30:00Z,30.3288,-87.8293,1.835,3.0,1111122 
DISL,ioos:station:DISL:BSCA:1,2018-04-06T12:30:00Z,30.3288,-87.8293,1.891,3.96,1111122 
DISL,ioos:station:DISL:BSCA:1,2018-04-08T04:00:00Z,30.3288,-87.8293,1.81,7.44,1111122 
DISL,ioos:station:DISL:BSCA:1,2018-04-08T04:30:00Z,30.3288,-87.8293,1.773,7.09,1111122 
DISL,ioos:station:DISL:BSCA:1,2018-04-08T05:30:00Z,30.3288,-87.8293,1.715,7.67,1111122 
DISL,ioos:station:DISL:BSCA:1,2018-04-08T06:30:00Z,30.3288,-87.8293,1.653,7.55,1111122 
DISL,ioos:station:DISL:BSCA:1,2018-04-08T07:30:00Z,30.3288,-87.8293,1.615,7.45,1111122 
DISL,ioos:station:DISL:BSCA:1,2018-04-08T08:30:00Z,30.3288,-87.8293,1.613,7.3,1111122 
DISL,ioos:station:DISL:BSCA:1,2018-04-08T09:30:00Z,30.3288,-87.8293,1.638,6.95,1111122 
DISL,ioos:station:DISL:BSCA:1,2018-04-08T11:30:00Z,30.3288,-87.8293,1.708,7.41,1111122 
DISL,ioos:station:DISL:BSCA:1,2018-04-09T22:00:00Z,30.3288,-87.8293,2.161,5.07,1111122 
DISL,ioos:station:DISL:BSCA:1,2018-04-09T23:00:00Z,30.3288,-87.8293,2.18,5.73,1111122 
DISL,ioos:station:DISL:BSCA:1,2018-04-09T23:30:00Z,30.3288,-87.8293,2.173,5.92,1111122 
DISL,ioos:station:DISL:BSCA:1,2018-04-10T00:30:00Z,30.3288,-87.8293,2.162,7.05,1111122 
DISL,ioos:station:DISL:BSCA:1,2018-04-10T01:30:00Z,30.3288,-87.8293,2.109,6.58,1111122 
DISL,ioos:station:DISL:BSCA:1,2018-04-10T02:30:00Z,30.3288,-87.8293,2.053,5.95,1111122 
DISL,ioos:station:DISL:BSCA:1,2018-04-10T03:30:00Z,30.3288,-87.8293,2.006,4.61,1111122 
DISL,ioos:station:DISL:BSCA:1,2018-04-10T04:30:00Z,30.3288,-87.8293,1.953,4.82,1111122 
DISL,ioos:station:DISL:BSCA:1,2018-04-10T18:30:00Z,30.3288,-87.8293,2.022,7.89,1111122 
DISL,ioos:station:DISL:BSCA:1,2018-04-10T20:00:00Z,30.3288,-87.8293,2.084,7.61,1111122 
DISL,ioos:station:DISL:BSCA:1,2018-04-10T20:30:00Z,30.3288,-87.8293,2.094,6.99,1111122 
DISL,ioos:station:DISL:BSCA:1,2018-04-10T21:30:00Z,30.3288,-87.8293,2.114,5.71,1111122 
DISL,ioos:station:DISL:BSCA:1,2018-04-10T23:00:00Z,30.3288,-87.8293,2.139,6.28,1111122 
DISL,ioos:station:DISL:BSCA:1,2018-04-10T23:30:00Z,30.3288,-87.8293,2.132,6.29,1111122 
DISL,ioos:station:DISL:BSCA:1,2018-04-11T00:30:00Z,30.3288,-87.8293,2.102,3.66,1111122 
DISL,ioos:station:DISL:BSCA:1,2018-04-11T01:30:00Z,30.3288,-87.8293,2.088,5.02,1111122 
DISL,ioos:station:DISL:BSCA:1,2018-04-11T02:30:00Z,30.3288,-87.8293,2.059,5.41,1111122 
DISL,ioos:station:DISL:BSCA:1,2018-04-11T03:30:00Z,30.3288,-87.8293,2.039,3.78,1111122 
DISL,ioos:station:DISL:BSCA:1,2018-04-11T04:30:00Z,30.3288,-87.8293,1.985,6.51,1111122 
DISL,ioos:station:DISL:BSCA:1,2018-04-11T05:30:00Z,30.3288,-87.8293,1.932,5.82,1111122 
DISL,ioos:station:DISL:BSCA:1,2018-04-11T06:30:00Z,30.3288,-87.8293,1.911,6.56,1111122 
DISL,ioos:station:DISL:BSCA:1,2018-04-11T07:30:00Z,30.3288,-87.8293,1.872,7.36,1111122 
DISL,ioos:station:DISL:BSCA:1,2018-04-11T08:30:00Z,30.3288,-87.8293,1.799,8.14,1111122 
DISL,ioos:station:DISL:BSCA:1,2018-04-11T09:30:00Z,30.3288,-87.8293,1.762,8.3,1111122 
DISL,ioos:station:DISL:BSCA:1,2018-04-11T10:30:00Z,30.3288,-87.8293,1.713,8.34,1111122 
DISL,ioos:station:DISL:BSCA:1,2018-04-11T11:30:00Z,30.3288,-87.8293,1.686,7.69,1111122 
DISL,ioos:station:DISL:BSCA:1,2018-04-11T12:30:00Z,30.3288,-87.8293,1.713,7.82,1111122 
DISL,ioos:station:DISL:BSCA:1,2018-04-11T13:00:00Z,30.3288,-87.8293,1.741,7.45,1111122 
DISL,ioos:station:DISL:BSCA:1,2018-04-11T18:00:00Z,30.3288,-87.8293,2.013,7.79,1111122 
DISL,ioos:station:DISL:BSCA:1,2018-04-11T19:00:00Z,30.3288,-87.8293,2.058,8.96,1111122 
DISL,ioos:station:DISL:BSCA:1,2018-04-11T20:00:00Z,30.3288,-87.8293,2.063,8.92,1111122 
DISL,ioos:station:DISL:BSCA:1,2018-04-11T21:00:00Z,30.3288,-87.8293,2.035,8.9,1111122 
DISL,ioos:station:DISL:BSCA:1,2018-04-11T22:00:00Z,30.3288,-87.8293,2.032,9.08,1111122 
DISL,ioos:station:DISL:BSCA:1,2018-04-11T23:00:00Z,30.3288,-87.8293,2.07,8.7,1111122 
DISL,ioos:station:DISL:BSCA:1,2018-04-12T00:00:00Z,30.3288,-87.8293,2.063,9.32,1111122 
DISL,ioos:station:DISL:BSCA:1,2018-04-12T01:00:00Z,30.3288,-87.8293,2.025,8.84,1111122 
DISL,ioos:station:DISL:BSCA:1,2018-04-12T02:00:00Z,30.3288,-87.8293,1.988,8.31,1111122 
DISL,ioos:station:DISL:BSCA:1,2018-04-12T02:30:00Z,30.3288,-87.8293,1.984,7.95,1111122 
DISL,ioos:station:DISL:BSCA:1,2018-04-12T03:30:00Z,30.3288,-87.8293,1.988,7.71,1111122 
DISL,ioos:station:DISL:BSCA:1,2018-04-12T04:30:00Z,30.3288,-87.8293,1.978,6.21,1111122 
DISL,ioos:station:DISL:BSCA:1,2018-04-12T05:30:00Z,30.3288,-87.8293,1.932,5.84,1111122 
DISL,ioos:station:DISL:BSCA:1,2018-04-12T06:30:00Z,30.3288,-87.8293,1.871,5.8,1111122 
DISL,ioos:station:DISL:BSCA:1,2018-04-12T07:30:00Z,30.3288,-87.8293,1.82,4.98,1111122 
DISL,ioos:station:DISL:BSCA:1,2018-04-12T08:30:00Z,30.3288,-87.8293,1.777,4.27,1111122 
DISL,ioos:station:DISL:BSCA:1,2018-04-12T09:30:00Z,30.3288,-87.8293,1.751,4.06,1111122 
DISL,ioos:station:DISL:BSCA:1,2018-04-12T11:00:00Z,30.3288,-87.8293,1.733,4.4,1111122 
DISL,ioos:station:DISL:BSCA:1,2018-04-12T12:00:00Z,30.3288,-87.8293,1.719,6.42,1111122 
DISL,ioos:station:DISL:BSCA:1,2018-04-12T13:00:00Z,30.3288,-87.8293,1.719,4.38,1111122 
DISL,ioos:station:DISL:BSCA:1,2018-04-12T14:00:00Z,30.3288,-87.8293,1.759,3.31,1111122 
DISL,ioos:station:DISL:BSCA:1,2018-04-12T16:00:00Z,30.3288,-87.8293,1.86,3.46,1111122 
DISL,ioos:station:DISL:BSCA:1,2018-04-12T17:00:00Z,30.3288,-87.8293,1.87,7.86,1111122 
DISL,ioos:station:DISL:BSCA:1,2018-04-12T18:30:00Z,30.3288,-87.8293,1.884,8.11,1111122 
DISL,ioos:station:DISL:BSCA:1,2018-04-13T03:00:00Z,30.3288,-87.8293,2.06,6.41,1111122 
DISL,ioos:station:DISL:BSCA:1,2018-04-13T04:00:00Z,30.3288,-87.8293,2.062,6.46,1111122 
DISL,ioos:station:DISL:BSCA:1,2018-04-13T05:00:00Z,30.3288,-87.8293,2.04,8.77,1111122 
DISL,ioos:station:DISL:BSCA:1,2018-04-13T10:00:00Z,30.3288,-87.8293,1.899,6.58,1111122 
DISL,ioos:station:DISL:BSCA:1,2018-04-13T11:00:00Z,30.3288,-87.8293,1.869,6.67,1111122 
DISL,ioos:station:DISL:BSCA:1,2018-04-13T12:00:00Z,30.3288,-87.8293,1.864,6.51,1111122 
DISL,ioos:station:DISL:BSCA:1,2018-04-13T13:00:00Z,30.3288,-87.8293,1.889,5.52,1111122 
DISL,ioos:station:DISL:BSCA:1,2018-04-13T14:00:00Z,30.3288,-87.8293,1.907,6.64,1111122 
DISL,ioos:station:DISL:BSCA:1,2018-04-13T15:00:00Z,30.3288,-87.8293,1.929,7.54,1111122 
DISL,ioos:station:DISL:BSCA:1,2018-04-13T15:30:00Z,30.3288,-87.8293,1.943,7.53,1111122 
DISL,ioos:station:DISL:BSCA:1,2018-04-15T09:00:00Z,30.3288,-87.8293,2.317,7.73,1111122 
DISL,ioos:station:DISL:BSCA:1,2018-04-15T10:00:00Z,30.3288,-87.8293,2.47,7.85,1111122 
DISL,ioos:station:DISL:BSCA:1,2018-04-15T11:00:00Z,30.3288,-87.8293,2.198,8.09,1111122 
DISL,ioos:station:DISL:BSCA:1,2018-04-15T12:00:00Z,30.3288,-87.8293,2.045,8.04,1111122 
DISL,ioos:station:DISL:BSCA:1,2018-04-16T01:00:00Z,30.3288,-87.8293,1.968,8.15,1111122 
DISL,ioos:station:DISL:BSCA:1,2018-04-16T02:00:00Z,30.3288,-87.8293,1.929,8.12,1111122 
DISL,ioos:station:DISL:BSCA:1,2018-04-16T03:00:00Z,30.3288,-87.8293,1.851,7.89,1111122 
DISL,ioos:station:DISL:BSCA:1,2018-04-16T04:00:00Z,30.3288,-87.8293,1.777,7.29,1111122 
DISL,ioos:station:DISL:BSCA:1,2018-04-16T05:00:00Z,30.3288,-87.8293,1.731,6.58,1111122 
DISL,ioos:station:DISL:BSCA:1,2018-04-16T06:00:00Z,30.3288,-87.8293,1.759,6.45,1111122 
DISL,ioos:station:DISL:BSCA:1,2018-04-16T07:00:00Z,30.3288,-87.8293,1.813,7.11,1111122 
DISL,ioos:station:DISL:BSCA:1,2018-04-16T08:00:00Z,30.3288,-87.8293,1.851,7.46,1111122 
DISL,ioos:station:DISL:BSCA:1,2018-04-16T09:00:00Z,30.3288,-87.8293,1.861,7.5,1111122 
DISL,ioos:station:DISL:BSCA:1,2018-04-16T10:00:00Z,30.3288,-87.8293,1.855,6.15,1111122 
DISL,ioos:station:DISL:BSCA:1,2018-04-16T11:00:00Z,30.3288,-87.8293,1.863,7.38,1111122 
DISL,ioos:station:DISL:BSCA:1,2018-04-16T12:00:00Z,30.3288,-87.8293,1.881,7.14,1111122 
DISL,ioos:station:DISL:BSCA:1,2018-04-16T13:00:00Z,30.3288,-87.8293,1.929,6.88,1111122 
DISL,ioos:station:DISL:BSCA:1,2018-04-16T14:00:00Z,30.3288,-87.8293,1.999,7.8,1111122 
DISL,ioos:station:DISL:BSCA:1,2018-04-16T15:00:00Z,30.3288,-87.8293,2.004,8.27,1111122 
DISL,ioos:station:DISL:BSCA:1,2018-04-16T16:00:00Z,30.3288,-87.8293,1.989,8.09,1111122 
DISL,ioos:station:DISL:BSCA:1,2018-04-16T16:30:00Z,30.3288,-87.8293,1.963,8.06,1111122 
DISL,ioos:station:DISL:BSCA:1,2018-04-16T18:00:00Z,30.3288,-87.8293,1.985,8.01,1111122 
DISL,ioos:station:DISL:BSCA:1,2018-04-16T19:00:00Z,30.3288,-87.8293,1.972,7.97,1111122 
DISL,ioos:station:DISL:BSCA:1,2018-04-16T20:00:00Z,30.3288,-87.8293,1.955,8.58,1111122 
DISL,ioos:station:DISL:BSCA:1,2018-04-16T21:00:00Z,30.3288,-87.8293,1.876,8.84,1111122 
DISL,ioos:station:DISL:BSCA:1,2018-04-16T22:00:00Z,30.3288,-87.8293,1.806,7.84,1111122 
DISL,ioos:station:DISL:BSCA:1,2018-04-16T23:00:00Z,30.3288,-87.8293,1.766,9.19,1111122 
DISL,ioos:station:DISL:BSCA:1,2018-04-17T00:00:00Z,30.3288,-87.8293,1.718,9.3,1111122 
DISL,ioos:station:DISL:BSCA:1,2018-04-17T01:00:00Z,30.3288,-87.8293,1.655,8.81,1111122 
DISL,ioos:station:DISL:BSCA:1,2018-04-17T02:00:00Z,30.3288,-87.8293,1.613,8.78,1111122 
DISL,ioos:station:DISL:BSCA:1,2018-04-17T03:00:00Z,30.3288,-87.8293,1.595,8.41,1111122 
DISL,ioos:station:DISL:BSCA:1,2018-04-17T04:00:00Z,30.3288,-87.8293,1.605,7.96,1111122 
DISL,ioos:station:DISL:BSCA:1,2018-04-17T04:30:00Z,30.3288,-87.8293,1.632,7.61,1111122 
DISL,ioos:station:DISL:BSCA:1,2018-04-17T06:00:00Z,30.3288,-87.8293,1.681,7.79,1111122 
DISL,ioos:station:DISL:BSCA:1,2018-04-17T07:00:00Z,30.3288,-87.8293,1.717,7.77,1111122 
DISL,ioos:station:DISL:BSCA:1,2018-04-17T08:30:00Z,30.3288,-87.8293,1.768,7.73,1111122 
DISL,ioos:station:DISL:BSCA:1,2018-04-17T23:30:00Z,30.3288,-87.8293,1.744,10.9,1111122 
DISL,ioos:station:DISL:BSCA:1,2018-04-18T03:00:00Z,30.3288,-87.8293,1.695,10.5,1111122 
DISL,ioos:station:DISL:BSCA:1,2018-04-18T03:30:00Z,30.3288,-87.8293,1.709,10.23,1111122 
DISL,ioos:station:DISL:BSCA:1,2018-04-18T05:00:00Z,30.3288,-87.8293,1.787,10.51,1111122 
DISL,ioos:station:DISL:BSCA:1,2018-04-18T06:00:00Z,30.3288,-87.8293,1.838,10.28,1111122 
DISL,ioos:station:DISL:BSCA:1,2018-04-18T07:00:00Z,30.3288,-87.8293,1.877,10.19,1111122 
DISL,ioos:station:DISL:BSCA:1,2018-04-18T08:00:00Z,30.3288,-87.8293,1.934,9.98,1111122 
DISL,ioos:station:DISL:BSCA:1,2018-04-18T09:00:00Z,30.3288,-87.8293,1.982,9.58,1111122 
DISL,ioos:station:DISL:BSCA:1,2018-04-18T10:00:00Z,30.3288,-87.8293,2.007,9.37,1111122 
DISL,ioos:station:DISL:BSCA:1,2018-04-18T11:00:00Z,30.3288,-87.8293,2.041,8.55,1111122 
DISL,ioos:station:DISL:BSCA:1,2018-04-18T17:00:00Z,30.3288,-87.8293,2.168,7.88,1111122 
DISL,ioos:station:DISL:BSCA:1,2018-04-18T18:00:00Z,30.3288,-87.8293,2.157,7.28,1111122 
DISL,ioos:station:DISL:BSCA:1,2018-04-18T19:00:00Z,30.3288,-87.8293,2.133,8.05,1111122 
DISL,ioos:station:DISL:BSCA:1,2018-04-18T20:00:00Z,30.3288,-87.8293,2.077,8.51,1111122 
DISL,ioos:station:DISL:BSCA:1,2018-04-18T20:30:00Z,30.3288,-87.8293,2.055,8.56,1111122 
DISL,ioos:station:DISL:BSCA:1,2018-04-18T22:00:00Z,30.3288,-87.8293,1.976,9.64,1111122 
DISL,ioos:station:DISL:BSCA:1,2018-04-18T23:00:00Z,30.3288,-87.8293,1.914,10.25,1111122 
DISL,ioos:station:DISL:BSCA:1,2018-04-19T00:00:00Z,30.3288,-87.8293,1.825,10.45,1111122 
DISL,ioos:station:DISL:BSCA:1,2018-04-19T01:00:00Z,30.3288,-87.8293,1.783,10.42,1111122 
DISL,ioos:station:DISL:BSCA:1,2018-04-19T04:00:00Z,30.3288,-87.8293,1.743,9.44,1111122 
DISL,ioos:station:DISL:BSCA:1,2018-04-19T05:00:00Z,30.3288,-87.8293,1.729,9.61,1111122 
DISL,ioos:station:DISL:BSCA:1,2018-04-19T05:30:00Z,30.3288,-87.8293,1.727,9.77,1111122 
DISL,ioos:station:DISL:BSCA:1,2018-04-19T07:00:00Z,30.3288,-87.8293,1.791,9.43,1111122 
DISL,ioos:station:DISL:BSCA:1,2018-04-19T10:00:00Z,30.3288,-87.8293,1.962,8.78,1111122 
DISL,ioos:station:DISL:BSCA:1,2018-04-19T17:00:00Z,30.3288,-87.8293,2.164,8.42,1111122 
DISL,ioos:station:DISL:BSCA:1,2018-04-19T18:00:00Z,30.3288,-87.8293,2.111,8.33,1111122 
DISL,ioos:station:DISL:BSCA:1,2018-04-19T19:00:00Z,30.3288,-87.8293,2.071,8.14,1111122 
DISL,ioos:station:DISL:BSCA:1,2018-04-19T20:00:00Z,30.3288,-87.8293,2.052,8.06,1111122 
DISL,ioos:station:DISL:BSCA:1,2018-04-19T21:00:00Z,30.3288,-87.8293,2.041,8.31,1111122 
DISL,ioos:station:DISL:BSCA:1,2018-04-19T22:00:00Z,30.3288,-87.8293,2.006,8.1,1111122 
DISL,ioos:station:DISL:BSCA:1,2018-04-19T23:00:00Z,30.3288,-87.8293,1.938,7.83,1111122 
DISL,ioos:station:DISL:BSCA:1,2018-04-20T00:00:00Z,30.3288,-87.8293,1.854,7.37,1111122 
DISL,ioos:station:DISL:BSCA:1,2018-04-20T01:00:00Z,30.3288,-87.8293,1.789,7.37,1111122 
DISL,ioos:station:DISL:BSCA:1,2018-04-20T02:00:00Z,30.3288,-87.8293,1.717,7.32,1111122 
DISL,ioos:station:DISL:BSCA:1,2018-04-20T03:00:00Z,30.3288,-87.8293,1.647,7.64,1111122 
DISL,ioos:station:DISL:BSCA:1,2018-04-20T03:30:00Z,30.3288,-87.8293,1.617,7.56,1111122 
DISL,ioos:station:DISL:BSCA:1,2018-04-20T04:30:00Z,30.3288,-87.8293,1.549,7.5,1111122 
DISL,ioos:station:DISL:BSCA:1,2018-04-20T06:00:00Z,30.3288,-87.8293,1.472,8.18,1111122 
DISL,ioos:station:DISL:BSCA:1,2018-04-20T07:00:00Z,30.3288,-87.8293,1.435,8.14,1111122 
DISL,ioos:station:DISL:BSCA:1,2018-04-20T08:00:00Z,30.3288,-87.8293,1.438,7.58,1111122 
DISL,ioos:station:DISL:BSCA:1,2018-04-20T09:00:00Z,30.3288,-87.8293,1.478,6.88,1111122 
DISL,ioos:station:DISL:BSCA:1,2018-04-20T10:00:00Z,30.3288,-87.8293,1.533,5.58,1111122 
DISL,ioos:station:DISL:BSCA:1,2018-04-20T11:00:00Z,30.3288,-87.8293,1.588,5.63,1111122 
DISL,ioos:station:DISL:BSCA:1,2018-04-20T12:00:00Z,30.3288,-87.8293,1.672,5.88,1111122 
DISL,ioos:station:DISL:BSCA:1,2018-04-20T12:30:00Z,30.3288,-87.8293,1.716,6.51,1111122 
DISL,ioos:station:DISL:BSCA:1,2018-04-20T14:00:00Z,30.3288,-87.8293,1.811,5.97,1111122 
DISL,ioos:station:DISL:BSCA:1,2018-04-20T14:30:00Z,30.3288,-87.8293,1.858,7.25,1111122 
DISL,ioos:station:DISL:BSCA:1,2018-04-21T08:00:00Z,30.3288,-87.8293,1.572,6.38,1111122 
DISL,ioos:station:DISL:BSCA:1,2018-04-21T09:00:00Z,30.3288,-87.8293,1.588,4.49,1111122 
DISL,ioos:station:DISL:BSCA:1,2018-04-21T10:00:00Z,30.3288,-87.8293,1.641,6.39,1111122 
DISL,ioos:station:DISL:BSCA:1,2018-04-21T11:00:00Z,30.3288,-87.8293,1.712,4.61,1111122 
DISL,ioos:station:DISL:BSCA:1,2018-04-21T12:00:00Z,30.3288,-87.8293,1.779,4.77,1111122 
DISL,ioos:station:DISL:BSCA:1,2018-04-21T13:00:00Z,30.3288,-87.8293,1.855,4.69,1111122 
DISL,ioos:station:DISL:BSCA:1,2018-04-21T14:00:00Z,30.3288,-87.8293,1.914,3.86,1111122 
DISL,ioos:station:DISL:BSCA:1,2018-04-21T15:00:00Z,30.3288,-87.8293,1.965,7.25,1111122 
DISL,ioos:station:DISL:BSCA:1,2018-04-21T16:00:00Z,30.3288,-87.8293,2.03,7.24,1111122 
DISL,ioos:station:DISL:BSCA:1,2018-04-21T17:00:00Z,30.3288,-87.8293,2.099,8.14,1111122 
DISL,ioos:station:DISL:BSCA:1,2018-04-21T18:00:00Z,30.3288,-87.8293,2.168,6.35,1111122 
DISL,ioos:station:DISL:BSCA:1,2018-04-21T19:00:00Z,30.3288,-87.8293,2.201,6.76,1111122 
DISL,ioos:station:DISL:BSCA:1,2018-04-21T19:30:00Z,30.3288,-87.8293,2.2,6.2,1111122 
DISL,ioos:station:DISL:BSCA:1,2018-04-23T05:00:00Z,30.3288,-87.8293,1.974,7.11,1111122 
DISL,ioos:station:DISL:BSCA:1,2018-04-23T08:00:00Z,30.3288,-87.8293,1.821,4.85,1111122 
DISL,ioos:station:DISL:BSCA:1,2018-04-23T09:00:00Z,30.3288,-87.8293,1.778,5.3,1111122 
DISL,ioos:station:DISL:BSCA:1,2018-04-23T09:30:00Z,30.3288,-87.8293,1.773,5.09,1111122 
DISL,ioos:station:DISL:BSCA:1,2018-04-23T20:30:00Z,30.3288,-87.8293,2.373,9.23,1111122 
DISL,ioos:station:DISL:BSCA:1,2018-04-23T22:00:00Z,30.3288,-87.8293,2.406,8.98,1111122 
DISL,ioos:station:DISL:BSCA:1,2018-04-23T23:00:00Z,30.3288,-87.8293,2.355,9.11,1111122 
DISL,ioos:station:DISL:BSCA:1,2018-04-23T23:30:00Z,30.3288,-87.8293,2.317,9.1,1111122 
DISL,ioos:station:DISL:BSCA:1,2018-04-24T01:00:00Z,30.3288,-87.8293,2.24,8.8,1111122 
DISL,ioos:station:DISL:BSCA:1,2018-04-24T01:30:00Z,30.3288,-87.8293,2.204,8.85,1111122 
DISL,ioos:station:DISL:BSCA:1,2018-04-24T02:30:00Z,30.3288,-87.8293,2.13,8.59,1111122 
DISL,ioos:station:DISL:BSCA:1,2018-04-24T03:30:00Z,30.3288,-87.8293,2.082,8.65,1111122 
DISL,ioos:station:DISL:BSCA:1,2018-04-24T05:00:00Z,30.3288,-87.8293,1.916,8.09,1111122 
DISL,ioos:station:DISL:BSCA:1,2018-04-24T06:00:00Z,30.3288,-87.8293,1.836,8.09,1111122 
DISL,ioos:station:DISL:BSCA:1,2018-04-24T07:00:00Z,30.3288,-87.8293,1.8,8.02,1111122 
DISL,ioos:station:DISL:BSCA:1,2018-04-24T21:00:00Z,30.3288,-87.8293,2.176,9.79,1111122 
DISL,ioos:station:DISL:BSCA:1,2018-04-24T22:00:00Z,30.3288,-87.8293,2.183,8.3,1111122 
DISL,ioos:station:DISL:BSCA:1,2018-04-24T23:00:00Z,30.3288,-87.8293,2.169,8.85,1111122 
DISL,ioos:station:DISL:BSCA:1,2018-04-25T00:00:00Z,30.3288,-87.8293,2.09,7.35,1111122 
DISL,ioos:station:DISL:BSCA:1,2018-04-25T01:00:00Z,30.3288,-87.8293,2.026,8.49,1111122 
DISL,ioos:station:DISL:BSCA:1,2018-04-25T01:30:00Z,30.3288,-87.8293,1.992,8.36,1111122 
DISL,ioos:station:DISL:BSCA:1,2018-04-25T02:30:00Z,30.3288,-87.8293,1.919,8.48,1111122 
DISL,ioos:station:DISL:BSCA:1,2018-04-25T03:30:00Z,30.3288,-87.8293,1.871,8.02,1111122 
DISL,ioos:station:DISL:BSCA:1,2018-04-26T04:30:00Z,30.3288,-87.8293,1.917,5.44,1111122 
DISL,ioos:station:DISL:BSCA:1,2018-04-26T05:30:00Z,30.3288,-87.8293,1.88,3.37,1111122 
DISL,ioos:station:DISL:BSCA:1,2018-04-26T07:00:00Z,30.3288,-87.8293,1.828,2.97,1111122 
DISL,ioos:station:DISL:BSCA:1,2018-04-26T07:30:00Z,30.3288,-87.8293,1.82,3.4,1111122 
DISL,ioos:station:DISL:BSCA:1,2018-04-26T12:00:00Z,30.3288,-87.8293,1.887,7.62,1111122 
DISL,ioos:station:DISL:BSCA:1,2018-04-26T20:30:00Z,30.3288,-87.8293,1.946,8.68,1111122 
DISL,ioos:station:DISL:BSCA:1,2018-04-26T22:00:00Z,30.3288,-87.8293,1.966,9.09,1111122 
DISL,ioos:station:DISL:BSCA:1,2018-04-26T23:00:00Z,30.3288,-87.8293,1.974,8.79,1111122 
DISL,ioos:station:DISL:BSCA:1,2018-04-26T23:30:00Z,30.3288,-87.8293,1.975,8.61,1111122 
DISL,ioos:station:DISL:BSCA:1,2018-04-27T01:00:00Z,30.3288,-87.8293,1.925,8.5,1111122 
DISL,ioos:station:DISL:BSCA:1,2018-04-27T01:30:00Z,30.3288,-87.8293,1.888,8.24,1111122 
DISL,ioos:station:DISL:BSCA:1,2018-04-27T02:30:00Z,30.3288,-87.8293,1.907,8.3,1111122 
DISL,ioos:station:DISL:BSCA:1,2018-04-27T03:30:00Z,30.3288,-87.8293,1.877,8.32,1111122 
DISL,ioos:station:DISL:BSCA:1,2018-04-27T04:30:00Z,30.3288,-87.8293,1.847,8.24,1111122 
DISL,ioos:station:DISL:BSCA:1,2018-04-27T06:00:00Z,30.3288,-87.8293,1.824,8.18,1111122 
DISL,ioos:station:DISL:BSCA:1,2018-04-27T07:00:00Z,30.3288,-87.8293,1.835,8.23,1111122 
DISL,ioos:station:DISL:BSCA:1,2018-04-27T08:00:00Z,30.3288,-87.8293,1.815,7.64,1111122 
DISL,ioos:station:DISL:BSCA:1,2018-04-27T20:00:00Z,30.3288,-87.8293,1.882,6.67,1111122 
DISL,ioos:station:DISL:BSCA:1,2018-04-27T21:00:00Z,30.3288,-87.8293,1.845,7.32,1111122 
DISL,ioos:station:DISL:BSCA:1,2018-04-27T22:00:00Z,30.3288,-87.8293,1.82,7.48,1111122 
DISL,ioos:station:DISL:BSCA:1,2018-04-27T23:00:00Z,30.3288,-87.8293,1.8,7.33,1111122 
DISL,ioos:station:DISL:BSCA:1,2018-04-27T23:30:00Z,30.3288,-87.8293,1.795,6.71,1111122 
DISL,ioos:station:DISL:BSCA:1,2018-04-28T00:30:00Z,30.3288,-87.8293,1.831,8.42,1111122 
DISL,ioos:station:DISL:BSCA:1,2018-04-28T01:30:00Z,30.3288,-87.8293,1.829,8.02,1111122 
DISL,ioos:station:DISL:BSCA:1,2018-04-28T02:30:00Z,30.3288,-87.8293,1.829,7.74,1111122 
DISL,ioos:station:DISL:BSCA:1,2018-04-28T03:30:00Z,30.3288,-87.8293,1.835,7.28,1111122 
DISL,ioos:station:DISL:BSCA:1,2018-04-28T04:30:00Z,30.3288,-87.8293,1.853,7.05,1111122 
DISL,ioos:station:DISL:BSCA:1,2018-04-28T05:30:00Z,30.3288,-87.8293,1.862,7.07,1111122 
DISL,ioos:station:DISL:BSCA:1,2018-04-28T06:30:00Z,30.3288,-87.8293,1.872,7.66,1111122 
DISL,ioos:station:DISL:BSCA:1,2018-04-28T08:00:00Z,30.3288,-87.8293,1.834,6.8,1111122 
DISL,ioos:station:DISL:BSCA:1,2018-04-28T15:30:00Z,30.3288,-87.8293,1.947,6.33,1111122 
DISL,ioos:station:DISL:BSCA:1,2018-04-28T17:00:00Z,30.3288,-87.8293,1.971,6.48,1111122 
DISL,ioos:station:DISL:BSCA:1,2018-04-28T19:00:00Z,30.3288,-87.8293,1.925,6.18,1111122 
DISL,ioos:station:DISL:BSCA:1,2018-04-28T20:00:00Z,30.3288,-87.8293,1.891,6.19,1111122 
DISL,ioos:station:DISL:BSCA:1,2018-04-28T21:00:00Z,30.3288,-87.8293,1.854,7.61,1111122 
DISL,ioos:station:DISL:BSCA:1,2018-04-28T22:00:00Z,30.3288,-87.8293,1.82,8.73,1111122 
DISL,ioos:station:DISL:BSCA:1,2018-04-28T23:00:00Z,30.3288,-87.8293,1.793,10.0,1111122 
DISL,ioos:station:DISL:BSCA:1,2018-04-29T00:00:00Z,30.3288,-87.8293,1.796,10.27,1111122 
DISL,ioos:station:DISL:BSCA:1,2018-04-29T01:00:00Z,30.3288,-87.8293,1.801,9.77,1111122 
DISL,ioos:station:DISL:BSCA:1,2018-04-29T02:00:00Z,30.3288,-87.8293,1.787,9.59,1111122 
DISL,ioos:station:DISL:BSCA:1,2018-04-29T03:00:00Z,30.3288,-87.8293,1.782,9.2,1111122 
DISL,ioos:station:DISL:BSCA:1,2018-04-29T04:00:00Z,30.3288,-87.8293,1.793,9.17,1111122 
DISL,ioos:station:DISL:BSCA:1,2018-04-29T05:00:00Z,30.3288,-87.8293,1.81,8.8,1111122 
DISL,ioos:station:DISL:BSCA:1,2018-04-29T06:00:00Z,30.3288,-87.8293,1.813,8.51,1111122 
DISL,ioos:station:DISL:BSCA:1,2018-04-29T07:00:00Z,30.3288,-87.8293,1.823,8.55,1111122 
DISL,ioos:station:DISL:BSCA:1,2018-04-29T08:00:00Z,30.3288,-87.8293,1.822,8.58,1111122 
DISL,ioos:station:DISL:BSCA:1,2018-04-29T09:00:00Z,30.3288,-87.8293,1.81,7.19,1111122 